FW4235 Weather Reports


Display with metric or nautical units.
time (UTC)temp
F
wind
direction
speed
MPH
gust
MPH
rain 1hr
in
rain 24hr
in
rain mn
in
humidity
%
barometer
mb
20260510075008 74 46 0.0 0.0 0.00 0.00 0.00 57 1014.2
20260510074007 73 140 0.0 0.0 0.00 0.00 0.00 58 1014.1
20260510073507 73 113 0.0 0.0 0.00 0.00 0.00 58 1014.0
20260510073007 73 119 0.0 0.0 0.00 0.00 0.00 58 1014.0
20260510072007 73 142 0.0 0.0 0.00 0.00 0.00 58 1014.1
20260510071507 72 200 0.0 0.0 0.00 0.00 0.00 59 1014.2
20260510071007 72 165 0.0 0.0 0.00 0.00 0.00 58 1014.2
20260510070507 72 149 0.0 0.0 0.00 0.00 0.00 58 1014.1
20260510065507 71 83 0.0 0.0 0.00 0.00 0.00 60 1014.1
20260510064008 71 163 0.0 0.0 0.00 0.00 0.00 61 1014.0
20260510063508 71 150 0.0 0.0 0.00 0.00 0.00 62 1014.1
20260510063008 71 132 0.0 0.0 0.00 0.00 0.00 60 1014.0
20260510062508 71 137 0.0 0.0 0.00 0.00 0.00 60 1014.1
20260510062008 71 137 0.0 0.0 0.00 0.00 0.00 61 1014.0
20260510061508 71 117 0.0 0.0 0.00 0.00 0.00 60 1014.0
20260510061007 70 126 0.0 0.0 0.00 0.00 0.00 61 1014.0
20260510060508 70 126 0.0 0.0 0.00 0.00 0.00 61 1014.0
20260510060007 70 140 0.0 0.0 0.00 0.00 0.00 63 1014.1
20260510055508 69 140 0.0 0.0 0.00 0.00 0.00 63 1014.0
20260510055007 69 140 0.0 0.0 0.00 0.00 0.00 64 1014.0
20260510054507 68 113 0.0 0.0 0.00 0.00 0.00 65 1013.8
20260510054008 68 117 0.0 0.0 0.00 0.00 0.00 65 1013.9
20260510053508 67 117 0.0 0.0 0.00 0.00 0.00 65 1013.8
20260510053008 67 117 0.0 0.0 0.00 0.00 0.00 66 1013.7
20260510052507 67 119 0.0 0.0 0.00 0.00 0.00 67 1013.7
20260510052007 66 119 0.0 0.0 0.00 0.00 0.00 67 1013.7
20260510051507 66 119 0.0 0.0 0.00 0.00 0.00 68 1013.5
20260510051007 66 105 0.0 0.0 0.00 0.00 0.00 69 1013.5
20260510050508 66 21 0.0 0.0 0.00 0.00 0.00 70 1013.4
20260510050007 65 22 0.0 0.0 0.00 0.00 0.00 71 1013.3
20260510045508 65 284 0.0 0.0 0.00 0.00 0.00 71 1013.3
20260510045007 64 283 0.0 0.0 0.00 0.00 0.00 71 1013.4
20260510044007 64 277 0.0 0.0 0.00 0.00 0.00 72 1013.5
20260510042507 63 277 0.0 0.0 0.00 0.00 0.00 73 1013.5
20260510042007 63 276 0.0 0.0 0.00 0.00 0.00 72 1013.4
20260510041508 62 28 0.0 0.0 0.00 0.00 0.00 73 1013.4
20260510041008 62 28 0.0 0.0 0.00 0.00 0.00 73 1013.3
20260510040507 62 28 0.0 0.0 0.00 0.00 0.00 72 1013.2
20260510035508 62 28 0.0 0.0 0.00 0.00 0.00 72 1013.1
20260510035008 62 28 0.0 0.0 0.00 0.00 0.00 71 1013.1
20260510034508 62 28 0.0 0.0 0.00 0.00 0.00 70 1013.0
20260510033507 63 28 0.0 0.0 0.00 0.00 0.00 70 1012.9
20260510033008 63 28 0.0 0.0 0.00 0.00 0.00 70 1012.9
20260510032507 62 28 0.0 0.0 0.00 0.00 0.00 70 1012.8
20260510031508 62 29 0.0 0.0 0.00 0.00 0.00 71 1012.8
20260510031007 62 32 0.0 0.0 0.00 0.00 0.00 70 1012.8
20260510030507 62 349 0.0 0.0 0.00 0.00 0.00 70 1012.9
20260510030007 62 340 0.0 0.0 0.00 0.00 0.00 70 1012.9
20260510025008 62 340 0.0 0.0 0.00 0.00 0.00 69 1012.7
20260510024508 62 340 0.0 0.0 0.00 0.00 0.00 69 1012.7
20260510024008 63 340 0.0 0.0 0.00 0.00 0.00 69 1012.6
20260510023507 63 340 0.0 0.0 0.00 0.00 0.00 69 1012.6
20260510021507 63 341 0.0 0.0 0.00 0.00 0.00 69 1012.7
20260510021008 63 338 0.0 0.0 0.00 0.00 0.00 70 1012.6
20260510020508 63 338 0.0 0.0 0.00 0.00 0.00 70 1012.6
20260510020007 63 338 0.0 0.0 0.00 0.00 0.00 70 1012.6
20260510015507 63 338 0.0 0.0 0.00 0.00 0.00 69 1012.5
20260510015007 63 338 0.0 0.0 0.00 0.00 0.00 69 1012.5
20260510014507 63 338 0.0 0.0 0.00 0.00 0.00 69 1012.6
20260510014008 63 338 0.0 0.0 0.00 0.00 0.00 69 1012.6
20260510013507 63 338 0.0 0.0 0.00 0.00 0.00 68 1012.5
20260510013008 63 338 0.0 0.0 0.00 0.00 0.00 68 1012.5
20260510012507 63 338 0.0 0.0 0.00 0.00 0.00 68 1012.5
20260510012008 63 338 0.0 0.0 0.00 0.00 0.00 68 1012.5
20260510011507 63 338 0.0 0.0 0.00 0.00 0.00 68 1012.6
20260510011008 63 338 0.0 0.0 0.00 0.00 0.00 68 1012.6
20260510010508 63 338 0.0 0.0 0.00 0.00 0.00 67 1012.6
20260510010007 63 338 0.0 0.0 0.00 0.00 0.00 67 1012.6
20260510005507 64 337 0.0 0.0 0.00 0.00 0.00 66 1012.4
20260510005007 64 336 0.0 0.0 0.00 0.00 0.00 66 1012.5
20260510004007 63 336 0.0 0.0 0.00 0.00 0.00 66 1012.5
20260510003507 63 327 0.0 0.0 0.00 0.00 0.00 67 1012.5
20260510003007 63 313 0.0 0.0 0.00 0.00 0.00 67 1012.5
20260510002507 63 313 0.0 0.0 0.00 0.00 0.00 66 1012.5
20260510001508 63 130 0.0 0.0 0.00 0.00 0.00 66 1012.6
20260510000507 63 123 0.0 0.0 0.00 0.00 0.00 66 1012.5
20260509235507 64 43 0.0 0.0 0.00 0.00 0.00 66 1012.5
20260509235008 64 43 0.0 0.0 0.00 0.00 0.00 66 1012.5
20260509234507 64 43 0.0 0.0 0.00 0.00 0.00 66 1012.6
20260509234007 64 43 0.0 0.0 0.00 0.00 0.00 66 1012.7
20260509233507 64 43 0.0 0.0 0.00 0.00 0.00 67 1012.7
20260509233008 64 43 0.0 0.0 0.00 0.00 0.00 67 1012.7
20260509232007 64 43 0.0 0.0 0.00 0.00 0.00 68 1012.8
20260509231507 64 43 0.0 0.0 0.00 0.00 0.00 68 1012.8
20260509231007 64 43 0.0 0.0 0.00 0.00 0.00 69 1012.8
20260509230507 64 43 0.0 0.0 0.00 0.00 0.00 69 1012.8
20260509230008 63 43 0.0 0.0 0.00 0.00 0.00 70 1012.9
20260509225507 63 43 0.0 0.0 0.00 0.00 0.00 70 1012.9
20260509223508 64 40 0.0 0.0 0.00 0.00 0.00 69 1012.9
20260509223008 64 40 0.0 0.0 0.00 0.00 0.00 68 1013.0
20260509222507 64 40 0.0 0.0 0.00 0.00 0.00 68 1013.1
20260509222007 64 40 0.0 0.0 0.00 0.00 0.00 68 1013.1
20260509221507 64 40 0.0 0.0 0.00 0.00 0.00 68 1013.1
20260509221007 64 37 0.0 0.0 0.00 0.00 0.00 67 1013.1
20260509220507 64 34 0.0 0.0 0.00 0.00 0.00 67 1013.1
20260509220007 64 46 0.0 0.0 0.00 0.00 0.00 67 1013.1
20260509215510 64 46 0.0 0.0 0.00 0.00 0.00 66 1013.1
20260509215007 64 46 0.0 0.0 0.00 0.00 0.00 66 1013.0
20260509214507 64 46 0.0 0.0 0.00 0.00 0.00 66 1013.0
20260509214008 65 44 0.0 0.0 0.00 0.00 0.00 67 1013.0
20260509213507 64 356 0.0 0.0 0.00 0.00 0.00 69 1013.0
20260509213007 64 5 0.0 0.0 0.00 0.00 0.00 69 1013.0
20260509212507 64 257 0.0 0.0 0.00 0.00 0.00 69 1013.0
20260509212008 63 274 0.0 0.0 0.00 0.00 0.00 68 1013.0
20260509211507 63 253 0.0 0.0 0.00 0.00 0.00 68 1013.0
20260509211007 63 21 0.0 0.0 0.00 0.00 0.00 68 1013.1
20260509210507 64 21 0.0 0.0 0.00 0.00 0.00 68 1013.0
20260509210007 64 5 0.0 0.0 0.00 0.00 0.00 68 1013.0
20260509205507 64 38 0.0 0.0 0.00 0.00 0.00 67 1012.9
20260509205008 64 41 0.0 0.0 0.00 0.00 0.00 67 1012.9
20260509204507 64 41 0.0 0.0 0.00 0.00 0.00 67 1012.9
20260509204007 64 41 0.0 0.0 0.00 0.00 0.00 66 1013.0
20260509203507 64 41 0.0 0.0 0.00 0.00 0.00 66 1012.9
20260509203007 64 41 0.0 0.0 0.00 0.00 0.00 66 1013.0
20260509202507 64 41 0.0 0.0 0.00 0.00 0.00 66 1012.9
20260509202007 64 41 0.0 0.0 0.00 0.00 0.00 66 1012.9
20260509201507 65 41 0.0 0.0 0.00 0.00 0.00 66 1012.9
20260509201007 64 41 0.0 0.0 0.00 0.00 0.00 67 1012.9
20260509200507 64 42 0.0 0.0 0.00 0.00 0.00 67 1012.9
20260509200007 64 42 0.0 0.0 0.00 0.00 0.00 66 1012.9
20260509195507 64 42 0.0 0.0 0.00 0.00 0.00 66 1012.8
20260509195007 65 42 0.0 0.0 0.00 0.00 0.00 66 1012.8
20260509194507 65 42 0.0 0.0 0.00 0.00 0.00 66 1012.8
20260509194007 65 42 0.0 0.0 0.00 0.00 0.00 66 1012.7
20260509193507 65 42 0.0 0.0 0.00 0.00 0.00 66 1012.8
20260509193007 65 42 0.0 0.0 0.00 0.00 0.00 66 1012.7
20260509192507 65 42 0.0 0.0 0.00 0.00 0.00 67 1012.7
20260509191507 65 42 0.0 0.0 0.00 0.00 0.00 68 1012.8
20260509191007 65 42 0.0 0.0 0.00 0.00 0.00 67 1012.8
20260509190507 65 43 0.0 0.0 0.00 0.00 0.00 67 1012.7
20260509190007 65 45 0.0 0.0 0.00 0.00 0.00 67 1012.7
20260509185507 65 45 0.0 0.0 0.00 0.00 0.00 67 1012.8
20260509185007 65 45 0.0 0.0 0.00 0.00 0.00 66 1012.7
20260509184507 65 0 0.0 0.0 0.00 0.00 0.00 66 1012.6
20260509184007 65 0 0.0 0.0 0.00 0.00 0.00 66 1012.5
20260509183507 66 355 0.0 0.0 0.00 0.00 0.00 66 1012.4
20260509183007 66 351 0.0 0.0 0.00 0.00 0.00 66 1012.4
20260509182507 66 249 0.0 0.0 0.00 0.00 0.00 65 1012.3
20260509182007 66 252 0.0 0.0 0.00 0.00 0.00 65 1012.3
20260509181507 66 255 0.0 0.0 0.00 0.00 0.00 65 1012.2
20260509180507 66 275 0.0 0.0 0.00 0.00 0.00 64 1012.1
20260509180007 66 268 0.0 0.0 0.00 0.00 0.00 63 1012.0
20260509175007 67 263 0.0 0.0 0.00 0.00 0.00 62 1011.9
20260509174507 67 271 0.0 0.0 0.00 0.00 0.00 61 1011.9
20260509173507 68 269 0.0 0.0 0.00 0.00 0.00 59 1011.8
20260509173008 68 264 0.0 0.0 0.00 0.00 0.00 59 1011.8
20260509172507 68 266 0.0 0.0 0.00 0.00 0.00 57 1011.7
20260509170507 69 258 0.0 0.0 0.00 0.00 0.00 54 1011.6
20260509170008 69 231 0.0 0.0 0.00 0.00 0.00 54 1011.7
20260509165007 70 227 0.0 0.0 0.00 0.00 0.00 52 1011.7
20260509164507 70 230 0.0 0.0 0.00 0.00 0.00 52 1011.6
20260509163507 70 227 0.0 0.0 0.00 0.00 0.00 50 1011.7
20260509163008 71 230 0.0 0.0 0.00 0.00 0.00 49 1011.6
20260509162507 71 227 0.0 0.0 0.00 0.00 0.00 48 1011.6
20260509162007 71 222 0.0 0.0 0.00 0.00 0.00 47 1011.6
20260509161507 71 223 0.0 0.0 0.00 0.00 0.00 47 1011.5
20260509161007 71 244 0.0 0.0 0.00 0.00 0.00 48 1011.5
20260509160507 71 213 0.0 0.0 0.00 0.00 0.00 48 1011.5
20260509160007 71 233 0.0 0.0 0.00 0.00 0.00 47 1011.4
20260509155007 72 238 0.0 0.0 0.00 0.00 0.00 46 1011.4
20260509154507 72 219 0.0 0.0 0.00 0.00 0.00 46 1011.4
20260509153507 72 210 0.0 0.0 0.00 0.00 0.00 45 1011.5
20260509153007 73 223 0.0 0.0 0.00 0.00 0.00 45 1011.5
20260509152007 73 217 0.0 0.0 0.00 0.00 0.00 43 1011.4
20260509151507 73 202 0.0 0.0 0.00 0.00 0.00 42 1011.4
20260509151007 73 204 0.0 0.0 0.00 0.00 0.00 42 1011.5
20260509150007 73 193 0.0 0.0 0.00 0.00 0.00 40 1011.4
20260509145507 73 199 0.0 0.0 0.00 0.00 0.00 40 1011.5
20260509145007 73 192 0.0 0.0 0.00 0.00 0.00 40 1011.6
20260509144507 73 197 0.0 0.0 0.00 0.00 0.00 38 1011.6
20260509144007 74 203 0.0 0.0 0.00 0.00 0.00 37 1011.6
20260509143507 74 202 0.0 0.0 0.00 0.00 0.00 37 1011.6
20260509143007 75 201 0.0 0.0 0.00 0.00 0.00 36 1011.6
20260509142507 75 201 0.0 0.0 0.00 0.00 0.00 35 1011.6
20260509142007 75 196 0.0 0.0 0.00 0.00 0.00 35 1011.7
20260509141507 75 187 0.0 0.0 0.00 0.00 0.00 35 1011.7
20260509141007 75 203 0.0 0.0 0.00 0.00 0.00 34 1011.7
20260509140507 74 214 0.0 0.0 0.00 0.00 0.00 35 1011.8
20260509140007 74 214 0.0 0.0 0.00 0.00 0.00 33 1011.8
20260509135507 75 202 0.0 0.0 0.00 0.00 0.00 35 1011.7
20260509135007 75 180 0.0 0.0 0.00 0.00 0.00 34 1011.8
20260509134507 75 217 0.0 0.0 0.00 0.00 0.00 36 1011.7
20260509133507 75 187 0.0 0.0 0.00 0.00 0.00 34 1011.8
20260509133007 75 197 0.0 0.0 0.00 0.00 0.00 35 1011.8
20260509132507 75 187 0.0 0.0 0.00 0.00 0.00 35 1011.8
20260509132007 75 163 0.0 0.0 0.00 0.00 0.00 36 1011.9
20260509131007 75 195 0.0 0.0 0.00 0.00 0.00 36 1011.9
20260509130507 75 206 0.0 0.0 0.00 0.00 0.00 37 1012.0
20260509130006 75 188 0.0 0.0 0.00 0.00 0.00 37 1012.0
20260509125007 75 186 0.0 0.0 0.00 0.00 0.00 38 1012.1
20260509124507 75 184 0.0 0.0 0.00 0.00 0.00 38 1012.2
20260509124007 75 168 0.0 0.0 0.00 0.00 0.00 38 1012.2
20260509123507 76 172 0.0 0.0 0.00 0.00 0.00 38 1012.4
20260509122507 75 198 0.0 0.0 0.00 0.00 0.00 39 1012.3
20260509121507 75 216 0.0 0.0 0.00 0.00 0.00 39 1012.5
20260509121007 75 209 0.0 0.0 0.00 0.00 0.00 39 1012.5
20260509120507 75 192 0.0 0.0 0.00 0.00 0.00 39 1012.4
20260509120007 75 199 0.0 0.0 0.00 0.00 0.00 39 1012.5
20260509115507 75 209 0.0 0.0 0.00 0.00 0.00 41 1012.4
20260509115007 75 204 0.0 0.0 0.00 0.00 0.00 41 1012.4
20260509114507 75 197 0.0 0.0 0.00 0.00 0.00 40 1012.5
20260509114007 75 200 0.0 0.0 0.00 0.00 0.00 40 1012.5
20260509113507 74 189 0.0 0.0 0.00 0.00 0.00 42 1012.5
20260509113007 74 200 0.0 0.0 0.00 0.00 0.00 42 1012.5
20260509112507 74 197 0.0 0.0 0.00 0.00 0.00 41 1012.5
20260509112007 74 203 0.0 0.0 0.00 0.00 0.00 41 1012.6
20260509111507 74 173 0.0 0.0 0.00 0.00 0.00 42 1012.7
20260509111007 75 182 0.0 0.0 0.00 0.00 0.00 41 1012.6
20260509110507 75 192 0.0 0.0 0.00 0.00 0.00 43 1012.5
20260509105507 75 192 0.0 0.0 0.00 0.00 0.00 43 1012.6
20260509105007 75 202 0.0 0.0 0.00 0.00 0.00 43 1012.7
20260509104007 75 176 0.0 0.0 0.00 0.00 0.00 41 1012.5
20260509103507 75 194 0.0 0.0 0.00 0.00 0.00 41 1012.5
20260509103008 75 190 0.0 0.0 0.00 0.00 0.00 39 1012.6
20260509102507 75 188 0.0 0.0 0.00 0.00 0.00 40 1012.7
20260509102008 75 182 0.0 0.0 0.00 0.00 0.00 39 1012.7
20260509101007 75 194 0.0 0.0 0.00 0.00 0.00 37 1012.8
20260509100007 75 179 0.0 0.0 0.00 0.00 0.00 35 1013.0
20260509095507 76 189 0.0 0.0 0.00 0.00 0.00 37 1013.0
20260509095007 76 214 0.0 0.0 0.00 0.00 0.00 35 1013.2
20260509094506 75 204 0.0 0.0 0.00 0.00 0.00 37 1013.2
20260509093507 75 187 0.0 0.0 0.00 0.00 0.00 36 1013.3
20260509093007 75 172 0.0 0.0 0.00 0.00 0.00 38 1013.2
20260509092507 76 169 0.0 0.0 0.00 0.00 0.00 37 1013.2
20260509092007 76 177 0.0 0.0 0.00 0.00 0.00 35 1013.2
20260509091507 76 196 0.0 0.0 0.00 0.00 0.00 36 1013.2
20260509091007 76 212 0.0 0.0 0.00 0.00 0.00 37 1013.2
20260509090507 76 183 0.0 0.0 0.00 0.00 0.00 34 1013.3
20260509090007 76 194 0.0 0.0 0.00 0.00 0.00 35 1013.4
20260509085506 76 199 0.0 0.0 0.00 0.00 0.00 35 1013.4
20260509085007 76 212 0.0 0.0 0.00 0.00 0.00 35 1013.5
20260509084507 75 203 0.0 0.0 0.00 0.00 0.00 36 1013.4
20260509084007 75 168 0.0 0.0 0.00 0.00 0.00 38 1013.4
20260509083507 76 173 0.0 0.0 0.00 0.00 0.00 38 1013.4
20260509083006 76 163 0.0 0.0 0.00 0.00 0.00 39 1013.4
20260509082507 74 191 0.0 0.0 0.00 0.00 0.00 42 1013.5
20260509081007 74 203 0.0 0.0 0.00 0.00 0.00 44 1013.5
20260509080507 74 239 0.0 0.0 0.00 0.00 0.00 44 1013.4
20260509080007 74 215 0.0 0.0 0.00 0.00 0.00 44 1013.3
20260509075506 73 211 0.0 0.0 0.00 0.00 0.00 44 1013.3